星链-11432 (STARLINK-11432)

导读

STARLINK-11432是美国于2025年2月4日发射的星链系列卫星。星链计划是SpaceX打造的低轨卫星互联网项目,旨在为全球提供高速互联网接入服务。该卫星延续星链设计,服务于全球网络覆盖建设,助力偏远地区连通、海洋航空等场景联网,是星链星座组网扩容的重要组成部分。

基本信息
目录编号:
62882
目录名称:
STARLINK-11432
国际标识:
2025-024D
轨道中心:
EARTH
卫星名称:
星链-11432
卫星全名:
星链-11432 (STARLINK-11432)
卫星状态:
在轨 (已飞行578 天)
发射日期:
2025-02-04 UTC
国别 :
美国 (US)
星等 :
--
轨道信息
数据来源 国际轨道数据
星历时间: 2026-09-05T12:21:45+0800
5小时前
查看轨道信息
半长轴: 6734.616km
偏心率: 0.0001903
轨道倾角: 43.000°
近地点辐角 277.609°
升交点赤经 179.755°
平近点角 82.456°
近地点: 355.197km
远地点: 357.761km
周期: 91.670分钟
每日圈数: 15.708458
详细信息
固有亮度:
5
最大亮度:
2.5
卫星平台:
Starlink V1.0
覆盖范围:
全球
运营商:
太空探索技术公司
运营商所在国:
美国
制造商(研发单位):
太空探索技术公司
制造商所在国:
美国
使用方式:
暂无
卫星简介
Starlink 计划是 SpaceX 推出的全球卫星互联网项目,通过发射低轨道卫星,为全球尤其是偏远地区提供高速、低延迟的互联网服务。自 2019 年起,Starlink 已部署数千颗卫星,旨在缩小全球数字鸿沟,推动互联网普及。该项目还为军事、航空等行业提供通信支持,带来广泛经济效益。
2D轨道图
3D轨道图
轨道高度分析图
轨道倾角分析图
轨道综合分析图
查看轨道综合分析图
交会数据列表
事件ID 空间交会对象 最接近时刻(TCA) 交会距离 交会风险概率(CRP) 交会风险指数(CRI) 操作
CDM_260903-143906-288206-310921
2026-09-03T
14:39:51+0000
2.197 km
极远距离
1.173858E-6 低风险 0.36
CDM_260903-165706-288206-310921
2026-09-03T
16:57:08+0000
2.407 km
极远距离
9.856409E-7 极低风险 0.35